| time (UTC) | temp C | wind direction | speed KPH | gust KPH | rain 1hr cm | rain 24hr cm | rain mn cm | humidity % | barometer mb |
| 20260507002805 | 9 | 306 | 0.0 | 3.2 | 0.00 | 1.80 | 0.84 | 73 | 1011.9 |
| 20260507002306 | 10 | 342 | 3.2 | 4.8 | 0.00 | 1.83 | 0.84 | 68 | 1012.0 |
| 20260507001305 | 11 | 342 | 0.0 | 4.8 | 0.00 | 1.93 | 0.84 | 60 | 1011.9 |
| 20260507000804 | 11 | 327 | 1.6 | 8.0 | 0.00 | 1.96 | 0.84 | 61 | 1011.7 |
| 20260507000306 | 12 | 296 | 0.0 | 8.0 | 0.00 | 2.01 | 0.84 | 56 | 1011.8 |
| 20260506235804 | 12 | 360 | 6.4 | 8.0 | 0.00 | 2.03 | 0.84 | 57 | 1011.8 |
| 20260506235306 | 12 | 360 | 3.2 | 8.0 | 0.00 | 2.08 | 0.84 | 56 | 1011.9 |
| 20260506234803 | 12 | 333 | 1.6 | 4.8 | 0.00 | 2.13 | 0.84 | 60 | 1011.7 |
| 20260506234303 | 12 | 319 | 1.6 | 6.4 | 0.00 | 2.16 | 0.84 | 60 | 1011.7 |
| 20260506233833 | 12 | 318 | 4.8 | 6.4 | 0.00 | 2.21 | 0.84 | 62 | 1011.7 |
| 20260506233333 | 12 | 5 | 4.8 | 9.7 | 0.00 | 2.24 | 0.84 | 59 | 1011.8 |
| 20260506232333 | 12 | 333 | 1.6 | 9.7 | 0.00 | 2.36 | 0.84 | 61 | 1011.8 |
| 20260506231833 | 12 | 322 | 4.8 | 9.7 | 0.00 | 2.54 | 0.84 | 59 | 1011.8 |
| 20260506231332 | 12 | 318 | 8.0 | 9.7 | 0.00 | 2.74 | 0.84 | 59 | 1011.7 |
| 20260506230332 | 12 | 304 | 3.2 | 9.7 | 0.00 | 2.90 | 0.84 | 60 | 1011.9 |
| 20260506225332 | 12 | 5 | 8.0 | 9.7 | 0.00 | 2.95 | 0.84 | 58 | 1011.9 |
| 20260506224832 | 12 | 319 | 1.6 | 12.9 | 0.00 | 2.95 | 0.84 | 55 | 1011.9 |
| 20260506224331 | 12 | 338 | 4.8 | 12.9 | 0.00 | 2.95 | 0.84 | 56 | 1012.0 |
| 20260506223832 | 12 | 355 | 3.2 | 11.3 | 0.00 | 2.95 | 0.84 | 57 | 1012.0 |
| 20260506223331 | 12 | 245 | 3.2 | 11.3 | 0.00 | 2.95 | 0.84 | 54 | 1012.0 |
| 20260506222831 | 12 | 321 | 4.8 | 9.7 | 0.00 | 2.95 | 0.84 | 56 | 1012.1 |
| 20260506222331 | 12 | 333 | 1.6 | 11.3 | 0.00 | 2.95 | 0.84 | 57 | 1012.1 |
| 20260506221831 | 13 | 333 | 4.8 | 11.3 | 0.00 | 2.95 | 0.84 | 54 | 1012.1 |
| 20260506221330 | 13 | 355 | 3.2 | 6.4 | 0.00 | 2.95 | 0.84 | 51 | 1012.2 |
| 20260506220330 | 13 | 311 | 6.4 | 9.7 | 0.00 | 2.95 | 0.84 | 54 | 1012.0 |
| 20260506215830 | 13 | 271 | 6.4 | 11.3 | 0.00 | 2.95 | 0.84 | 52 | 1011.9 |
| 20260506214830 | 13 | 22 | 11.3 | 11.3 | 0.00 | 2.95 | 0.84 | 55 | 1011.7 |
| 20260506214330 | 13 | 304 | 1.6 | 11.3 | 0.00 | 2.95 | 0.84 | 55 | 1011.7 |
| 20260506213830 | 13 | 304 | 3.2 | 11.3 | 0.00 | 2.95 | 0.84 | 56 | 1011.7 |
| 20260506213330 | 13 | 317 | 1.6 | 11.3 | 0.00 | 2.95 | 0.84 | 55 | 1011.8 |
| 20260506212829 | 13 | 348 | 4.8 | 9.7 | 0.00 | 2.95 | 0.84 | 57 | 1011.7 |
| 20260506212330 | 13 | 23 | 1.6 | 8.0 | 0.00 | 2.95 | 0.84 | 54 | 1011.7 |
| 20260506211829 | 13 | 340 | 1.6 | 9.7 | 0.00 | 2.95 | 0.84 | 58 | 1011.6 |
| 20260506211329 | 13 | 287 | 3.2 | 17.7 | 0.00 | 2.95 | 0.84 | 54 | 1011.6 |
| 20260506210828 | 13 | 327 | 4.8 | 17.7 | 0.00 | 2.95 | 0.84 | 54 | 1011.6 |
| 20260506210329 | 13 | 10 | 4.8 | 14.5 | 0.00 | 2.95 | 0.84 | 53 | 1011.6 |
| 20260506205828 | 13 | 360 | 3.2 | 14.5 | 0.00 | 2.95 | 0.84 | 54 | 1011.5 |
| 20260506205328 | 13 | 349 | 8.0 | 14.5 | 0.00 | 2.95 | 0.84 | 55 | 1011.5 |
| 20260506204828 | 13 | 360 | 4.8 | 12.9 | 0.00 | 2.97 | 0.84 | 57 | 1011.5 |
| 20260506204328 | 13 | 274 | 6.4 | 11.3 | 0.00 | 2.97 | 0.84 | 59 | 1011.6 |
| 20260506203828 | 12 | 282 | 0.0 | 17.7 | 0.00 | 2.97 | 0.84 | 59 | 1011.6 |
| 20260506203327 | 12 | 17 | 1.6 | 17.7 | 0.00 | 2.97 | 0.84 | 56 | 1011.6 |
| 20260506202328 | 13 | 355 | 4.8 | 11.3 | 0.00 | 3.00 | 0.84 | 55 | 1011.6 |
| 20260506201827 | 13 | 333 | 3.2 | 11.3 | 0.00 | 3.00 | 0.84 | 55 | 1011.5 |
| 20260506200827 | 13 | 308 | 3.2 | 11.3 | 0.00 | 3.00 | 0.84 | 58 | 1011.5 |
| 20260506200326 | 13 | 33 | 4.8 | 9.7 | 0.00 | 3.00 | 0.84 | 59 | 1011.5 |
| 20260506195827 | 12 | 328 | 1.6 | 6.4 | 0.00 | 3.02 | 0.84 | 60 | 1011.5 |
| 20260506195326 | 12 | 266 | 4.8 | 6.4 | 0.00 | 3.05 | 0.84 | 61 | 1011.4 |
| 20260506194827 | 12 | 22 | 1.6 | 8.0 | 0.00 | 3.07 | 0.84 | 59 | 1011.3 |
| 20260506194326 | 12 | 38 | 1.6 | 8.0 | 0.00 | 3.15 | 0.84 | 62 | 1011.3 |
| 20260506193826 | 12 | 329 | 3.2 | 11.3 | 0.00 | 3.20 | 0.84 | 55 | 1011.3 |
| 20260506193326 | 13 | 13 | 3.2 | 16.1 | 0.00 | 3.23 | 0.84 | 57 | 1011.3 |
| 20260506192826 | 13 | 34 | 6.4 | 16.1 | 0.00 | 3.23 | 0.84 | 55 | 1011.4 |
| 20260506192325 | 13 | 327 | 11.3 | 16.1 | 0.00 | 3.23 | 0.84 | 56 | 1011.5 |
| 20260506191825 | 13 | 289 | 3.2 | 8.0 | 0.00 | 3.23 | 0.84 | 57 | 1011.5 |
| 20260506191325 | 12 | 313 | 3.2 | 11.3 | 0.00 | 3.23 | 0.84 | 56 | 1011.6 |
| 20260506190325 | 12 | 301 | 0.0 | 8.0 | 0.00 | 3.23 | 0.84 | 58 | 1011.5 |
| 20260506185825 | 12 | 302 | 4.8 | 9.7 | 0.00 | 3.23 | 0.84 | 58 | 1011.6 |
| 20260506185324 | 12 | 348 | 0.0 | 9.7 | 0.00 | 3.23 | 0.84 | 59 | 1011.6 |
| 20260506184824 | 12 | 319 | 4.8 | 8.0 | 0.00 | 3.23 | 0.84 | 58 | 1011.5 |
| 20260506184324 | 12 | 319 | 8.0 | 12.9 | 0.00 | 3.23 | 0.84 | 60 | 1011.7 |
| 20260506183824 | 12 | 337 | 4.8 | 12.9 | 0.00 | 3.23 | 0.84 | 57 | 1011.7 |
| 20260506183324 | 12 | 341 | 8.0 | 14.5 | 0.00 | 3.23 | 0.84 | 58 | 1011.6 |
| 20260506182824 | 12 | 339 | 8.0 | 14.5 | 0.00 | 3.23 | 0.84 | 60 | 1011.4 |
| 20260506182324 | 13 | 24 | 4.8 | 12.9 | 0.00 | 3.23 | 0.84 | 56 | 1011.3 |
| 20260506181323 | 13 | 360 | 0.0 | 9.7 | 0.00 | 3.23 | 0.84 | 62 | 1011.2 |
| 20260506175823 | 12 | 310 | 8.0 | 11.3 | 0.00 | 3.23 | 0.84 | 61 | 1011.6 |
| 20260506175323 | 12 | 309 | 6.4 | 12.9 | 0.00 | 3.23 | 0.84 | 58 | 1011.6 |
| 20260506174822 | 12 | 338 | 1.6 | 16.1 | 0.00 | 3.23 | 0.84 | 60 | 1011.6 |
| 20260506173822 | 12 | 340 | 0.0 | 16.1 | 0.00 | 3.23 | 0.84 | 62 | 1011.8 |
| 20260506173322 | 12 | 302 | 1.6 | 16.1 | 0.00 | 3.23 | 0.84 | 63 | 1011.8 |
| 20260506172822 | 12 | 355 | 6.4 | 8.0 | 0.00 | 3.23 | 0.84 | 62 | 1011.9 |
| 20260506172322 | 12 | 275 | 0.0 | 9.7 | 0.00 | 3.23 | 0.84 | 60 | 1011.7 |
| 20260506171822 | 13 | 344 | 4.8 | 16.1 | 0.00 | 3.23 | 0.84 | 61 | 1011.5 |
| 20260506170821 | 13 | 15 | 11.3 | 16.1 | 0.00 | 3.23 | 0.84 | 61 | 1011.5 |
| 20260506170321 | 13 | 230 | 11.3 | 16.1 | 0.00 | 3.23 | 0.84 | 59 | 1011.5 |
| 20260506165321 | 13 | 12 | 3.2 | 9.7 | 0.00 | 3.23 | 0.84 | 59 | 1011.5 |
| 20260506164820 | 13 | 315 | 4.8 | 11.3 | 0.00 | 3.23 | 0.84 | 65 | 1011.6 |
| 20260506164321 | 12 | 339 | 1.6 | 14.5 | 0.00 | 3.23 | 0.84 | 56 | 1011.5 |
| 20260506163820 | 13 | 351 | 8.0 | 14.5 | 0.00 | 3.23 | 0.84 | 63 | 1011.6 |
| 20260506163320 | 12 | 335 | 3.2 | 20.9 | 0.00 | 3.23 | 0.84 | 61 | 1011.6 |
| 20260506162820 | 13 | 46 | 6.4 | 20.9 | 0.00 | 3.23 | 0.84 | 64 | 1011.6 |
| 20260506162320 | 13 | 40 | 4.8 | 9.7 | 0.00 | 3.23 | 0.84 | 63 | 1011.5 |
| 20260506161819 | 12 | 227 | 3.2 | 11.3 | 0.00 | 3.23 | 0.84 | 62 | 1011.4 |
| 20260506161320 | 12 | 17 | 9.7 | 14.5 | 0.00 | 3.23 | 0.84 | 60 | 1011.4 |
| 20260506160819 | 12 | 350 | 11.3 | 14.5 | 0.00 | 3.23 | 0.84 | 64 | 1011.8 |
| 20260506160320 | 13 | 335 | 1.6 | 14.5 | 0.00 | 3.23 | 0.84 | 66 | 1011.7 |
| 20260506155819 | 13 | 296 | 1.6 | 14.5 | 0.00 | 3.23 | 0.84 | 69 | 1011.4 |
| 20260506155319 | 13 | 328 | 4.8 | 11.3 | 0.00 | 3.23 | 0.84 | 66 | 1011.2 |
| 20260506154819 | 13 | 306 | 9.7 | 11.3 | 0.00 | 3.23 | 0.84 | 67 | 1011.3 |
| 20260506154318 | 12 | 18 | 3.2 | 11.3 | 0.00 | 3.23 | 0.84 | 64 | 1011.2 |
| 20260506153819 | 12 | 318 | 0.0 | 12.9 | 0.00 | 3.23 | 0.84 | 62 | 1011.2 |
| 20260506153318 | 12 | 249 | 1.6 | 14.5 | 0.00 | 3.23 | 0.84 | 64 | 1011.2 |
| 20260506152819 | 12 | 329 | 8.0 | 14.5 | 0.00 | 3.23 | 0.84 | 72 | 1011.2 |
| 20260506152318 | 12 | 5 | 9.7 | 17.7 | 0.00 | 3.23 | 0.84 | 71 | 1011.2 |
| 20260506151818 | 12 | 336 | 8.0 | 17.7 | 0.00 | 3.23 | 0.84 | 69 | 1011.2 |
| 20260506151318 | 12 | 331 | 6.4 | 17.7 | 0.00 | 3.23 | 0.84 | 67 | 1011.1 |
| 20260506150817 | 12 | 5 | 6.4 | 17.7 | 0.00 | 3.23 | 0.84 | 72 | 1010.9 |
| 20260506150318 | 12 | 296 | 8.0 | 14.5 | 0.00 | 3.23 | 0.84 | 68 | 1010.8 |
| 20260506145817 | 12 | 348 | 0.0 | 17.7 | 0.00 | 3.23 | 0.84 | 71 | 1010.7 |
| 20260506144817 | 11 | 292 | 4.8 | 17.7 | 0.00 | 3.23 | 0.84 | 71 | 1010.5 |
| 20260506144317 | 11 | 355 | 11.3 | 16.1 | 0.00 | 3.23 | 0.84 | 72 | 1010.4 |
| 20260506143817 | 11 | 338 | 8.0 | 16.1 | 0.00 | 3.23 | 0.84 | 71 | 1010.5 |
| 20260506143316 | 11 | 5 | 12.9 | 14.5 | 0.00 | 3.23 | 0.84 | 74 | 1010.5 |
| 20260506142816 | 11 | 45 | 1.6 | 17.7 | 0.00 | 3.23 | 0.84 | 73 | 1010.6 |
| 20260506142316 | 11 | 291 | 9.7 | 17.7 | 0.00 | 3.23 | 0.84 | 76 | 1010.7 |
| 20260506141816 | 11 | 5 | 12.9 | 17.7 | 0.00 | 3.23 | 0.84 | 75 | 1010.7 |
| 20260506140816 | 11 | 13 | 3.2 | 16.1 | 0.00 | 3.23 | 0.84 | 74 | 1010.5 |
| 20260506140315 | 10 | 329 | 6.4 | 16.1 | 0.00 | 3.23 | 0.84 | 78 | 1010.4 |
| 20260506135815 | 10 | 348 | 4.8 | 16.1 | 0.00 | 3.23 | 0.84 | 76 | 1010.3 |
| 20260506134815 | 10 | 330 | 9.7 | 11.3 | 0.00 | 3.23 | 0.84 | 77 | 1010.5 |
| 20260506133815 | 9 | 342 | 8.0 | 11.3 | 0.00 | 3.23 | 0.84 | 79 | 1010.3 |
| 20260506133315 | 9 | 329 | 6.4 | 12.9 | 0.00 | 3.23 | 0.84 | 80 | 1010.2 |
| 20260506132815 | 8 | 355 | 6.4 | 12.9 | 0.00 | 3.23 | 0.84 | 81 | 1010.1 |
| 20260506131814 | 8 | 336 | 8.0 | 14.5 | 0.00 | 3.23 | 0.84 | 83 | 1009.8 |
| 20260506131314 | 8 | 26 | 6.4 | 14.5 | 0.00 | 3.23 | 0.84 | 83 | 1009.9 |
| 20260506130814 | 8 | 285 | 1.6 | 8.0 | 0.00 | 3.23 | 0.84 | 85 | 1010.0 |
| 20260506130314 | 8 | 339 | 3.2 | 8.0 | 0.00 | 3.23 | 0.84 | 85 | 1009.9 |
| 20260506125313 | 8 | 329 | 0.0 | 9.7 | 0.00 | 3.23 | 0.84 | 85 | 1010.1 |
| 20260506124813 | 8 | 305 | 3.2 | 9.7 | 0.00 | 3.23 | 0.84 | 87 | 1010.1 |
| 20260506124313 | 7 | 338 | 8.0 | 9.7 | 0.00 | 3.23 | 0.84 | 86 | 1009.8 |
| 20260506123813 | 7 | 330 | 1.6 | 8.0 | 0.00 | 3.23 | 0.84 | 88 | 1009.7 |
| 20260506122813 | 7 | 323 | 6.4 | 8.0 | 0.00 | 3.23 | 0.84 | 88 | 1009.6 |
| 20260506122312 | 7 | 17 | 3.2 | 8.0 | 0.00 | 3.23 | 0.84 | 88 | 1009.6 |
| 20260506121812 | 7 | 14 | 0.0 | 8.0 | 0.00 | 3.23 | 0.84 | 89 | 1009.5 |
| 20260506121312 | 7 | 14 | 0.0 | 8.0 | 0.00 | 3.23 | 0.84 | 89 | 1009.4 |
| 20260506120812 | 7 | 348 | 3.2 | 9.7 | 0.00 | 3.23 | 0.84 | 90 | 1009.3 |
| 20260506120312 | 7 | 331 | 1.6 | 9.7 | 0.00 | 3.23 | 0.84 | 90 | 1009.1 |
| 20260506115812 | 7 | 360 | 3.2 | 8.0 | 0.00 | 3.23 | 0.84 | 91 | 1008.9 |
| 20260506115312 | 7 | 332 | 1.6 | 6.4 | 0.00 | 3.23 | 0.84 | 91 | 1008.8 |
| 20260506114811 | 7 | 332 | 3.2 | 8.0 | 0.00 | 3.23 | 0.84 | 91 | 1008.7 |
| 20260506113811 | 7 | 325 | 0.0 | 4.8 | 0.00 | 3.23 | 0.84 | 92 | 1008.5 |
| 20260506113312 | 7 | 323 | 1.6 | 4.8 | 0.00 | 3.23 | 0.84 | 92 | 1008.4 |
| 20260506112311 | 7 | 313 | 3.2 | 3.2 | 0.00 | 3.23 | 0.84 | 92 | 1008.2 |
| 20260506111310 | 7 | 190 | 0.0 | 4.8 | 0.00 | 3.23 | 0.84 | 92 | 1008.1 |
| 20260506110810 | 6 | 327 | 0.0 | 6.4 | 0.00 | 3.23 | 0.84 | 92 | 1008.0 |
| 20260506105310 | 6 | 328 | 3.2 | 6.4 | 0.00 | 3.23 | 0.84 | 92 | 1008.1 |
| 20260506104809 | 6 | 333 | 0.0 | 8.0 | 0.00 | 3.23 | 0.84 | 92 | 1008.1 |
| 20260506104310 | 6 | 355 | 1.6 | 8.0 | 0.00 | 3.23 | 0.84 | 92 | 1008.0 |
| 20260506103809 | 6 | 340 | 3.2 | 6.4 | 0.00 | 3.23 | 0.84 | 92 | 1007.9 |
| 20260506103309 | 6 | 5 | 0.0 | 6.4 | 0.00 | 3.23 | 0.84 | 92 | 1007.7 |
| 20260506102309 | 6 | 338 | 0.0 | 6.4 | 0.00 | 3.25 | 0.84 | 92 | 1007.7 |
| 20260506101309 | 6 | 355 | 4.8 | 6.4 | 0.00 | 3.25 | 0.84 | 92 | 1007.6 |
| 20260506100809 | 6 | 324 | 0.0 | 6.4 | 0.00 | 3.25 | 0.84 | 92 | 1007.7 |
| 20260506100309 | 6 | 348 | 1.6 | 6.4 | 0.00 | 3.25 | 0.84 | 92 | 1007.9 |
| 20260506095808 | 6 | 307 | 0.0 | 6.4 | 0.00 | 3.25 | 0.84 | 92 | 1007.7 |
| 20260506095308 | 6 | 30 | 0.0 | 6.4 | 0.00 | 3.25 | 0.84 | 92 | 1007.4 |
| 20260506094308 | 6 | 308 | 6.4 | 14.5 | 0.00 | 3.28 | 0.84 | 92 | 1007.5 |
| 20260506093807 | 6 | 350 | 4.8 | 14.5 | 0.00 | 3.28 | 0.84 | 92 | 1007.4 |
| 20260506093307 | 6 | 323 | 3.2 | 9.7 | 0.00 | 3.28 | 0.84 | 92 | 1007.6 |
| 20260506092807 | 6 | 334 | 4.8 | 9.7 | 0.00 | 3.30 | 0.84 | 92 | 1007.4 |
| 20260506092307 | 6 | 333 | 6.4 | 8.0 | 0.03 | 3.30 | 0.84 | 92 | 1007.2 |
| 20260506091807 | 6 | 360 | 0.0 | 6.4 | 0.03 | 3.33 | 0.84 | 92 | 1007.0 |
| 20260506091307 | 6 | 17 | 0.0 | 6.4 | 0.03 | 3.33 | 0.84 | 92 | 1007.1 |
| 20260506090807 | 6 | 9 | 0.0 | 4.8 | 0.03 | 3.38 | 0.84 | 92 | 1007.1 |
| 20260506090307 | 6 | 51 | 0.0 | 8.0 | 0.03 | 3.38 | 0.84 | 93 | 1006.6 |
| 20260506085807 | 6 | 34 | 4.8 | 8.0 | 0.03 | 3.43 | 0.84 | 92 | 1006.9 |
| 20260506085307 | 6 | 41 | 0.0 | 11.3 | 0.05 | 3.48 | 0.84 | 92 | 1007.1 |
| 20260506084306 | 6 | 5 | 6.4 | 6.4 | 0.05 | 3.66 | 0.84 | 92 | 1007.0 |
| 20260506083305 | 6 | 41 | 0.0 | 11.3 | 0.08 | 3.71 | 0.84 | 92 | 1006.5 |
| 20260506082805 | 6 | 104 | 1.6 | 11.3 | 0.08 | 3.76 | 0.84 | 92 | 1006.4 |
| 20260506082305 | 6 | 64 | 0.0 | 9.7 | 0.08 | 3.81 | 0.81 | 92 | 1006.2 |
| 20260506081305 | 6 | 31 | 6.4 | 9.7 | 0.08 | 3.84 | 0.81 | 91 | 1006.7 |
| 20260506080805 | 6 | 27 | 3.2 | 8.0 | 0.08 | 3.84 | 0.81 | 91 | 1007.2 |
| 20260506073303 | 6 | 9 | 3.2 | 11.3 | 0.03 | 3.78 | 0.76 | 91 | 1006.8 |
| 20260506072804 | 6 | 9 | 1.6 | 9.7 | 0.05 | 3.78 | 0.76 | 91 | 1006.7 |
| 20260506072305 | 6 | 15 | 3.2 | 9.7 | 0.03 | 3.76 | 0.74 | 91 | 1006.7 |
| 20260506071804 | 6 | 348 | 0.0 | 14.5 | 0.03 | 3.76 | 0.74 | 91 | 1006.6 |
| 20260506071303 | 6 | 333 | 8.0 | 14.5 | 0.05 | 3.76 | 0.74 | 91 | 1006.8 |
| 20260506070803 | 6 | 33 | 1.6 | 8.0 | 0.05 | 3.76 | 0.74 | 91 | 1006.6 |
| 20260506070303 | 6 | 17 | 3.2 | 11.3 | 0.08 | 3.76 | 0.74 | 91 | 1006.5 |
| 20260506062332 | 7 | 355 | 3.2 | 16.1 | 0.18 | 3.73 | 0.71 | 93 | 1007.1 |
| 20260506061831 | 7 | 9 | 8.0 | 16.1 | 0.20 | 3.73 | 0.71 | 93 | 1007.3 |
| 20260506061331 | 7 | 360 | 8.0 | 16.1 | 0.23 | 3.71 | 0.69 | 94 | 1007.4 |
| 20260506060831 | 7 | 36 | 0.0 | 16.1 | 0.25 | 3.71 | 0.69 | 94 | 1007.0 |
| 20260506044829 | 8 | 18 | 14.5 | 19.3 | 0.48 | 3.28 | 0.25 | 94 | 1007.2 |
| 20260506044328 | 8 | 5 | 8.0 | 17.7 | 0.51 | 3.23 | 0.20 | 94 | 1007.2 |
| 20260506043328 | 8 | 5 | 4.8 | 8.0 | 0.48 | 3.10 | 0.08 | 94 | 1006.7 |
| 20260506042828 | 8 | 40 | 0.0 | 8.0 | 0.48 | 3.10 | 0.08 | 94 | 1006.3 |
| 20260506042328 | 8 | 80 | 1.6 | 9.7 | 0.46 | 3.07 | 0.05 | 94 | 1006.1 |
| 20260506041828 | 8 | 78 | 0.0 | 16.1 | 0.46 | 3.07 | 0.05 | 94 | 1006.2 |
| 20260506041328 | 8 | 40 | 4.8 | 16.1 | 0.46 | 3.07 | 0.05 | 94 | 1006.2 |
| 20260506040827 | 8 | 49 | 6.4 | 16.1 | 0.43 | 3.05 | 0.03 | 94 | 1006.2 |
| 20260506040327 | 8 | 41 | 16.1 | 16.1 | 0.41 | 3.02 | 0.00 | 94 | 1006.6 |
| 20260506035827 | 8 | 64 | 9.7 | 14.5 | 0.36 | 2.97 | 2.97 | 94 | 1006.7 |
| 20260506034326 | 8 | 351 | 6.4 | 14.5 | 0.10 | 2.72 | 2.72 | 94 | 1007.1 |
| 20260506033327 | 8 | 22 | 8.0 | 17.7 | 0.05 | 2.62 | 2.62 | 94 | 1006.6 |
| 20260506032826 | 8 | 30 | 0.0 | 9.7 | 0.05 | 2.62 | 2.62 | 94 | 1006.5 |
| 20260506031326 | 8 | 35 | 4.8 | 16.1 | 0.10 | 2.62 | 2.62 | 94 | 1006.5 |
| 20260506030825 | 8 | 331 | 16.1 | 17.7 | 0.10 | 2.62 | 2.62 | 94 | 1006.2 |
| 20260506030326 | 8 | 19 | 6.4 | 17.7 | 0.13 | 2.62 | 2.62 | 94 | 1006.2 |
| 20260506025825 | 8 | 40 | 4.8 | 11.3 | 0.15 | 2.62 | 2.62 | 94 | 1006.2 |
| 20260506025325 | 8 | 24 | 4.8 | 9.7 | 0.18 | 2.62 | 2.62 | 94 | 1006.4 |
| 20260506024825 | 8 | 42 | 0.0 | 9.7 | 0.20 | 2.62 | 2.62 | 94 | 1006.2 |
| 20260506024325 | 8 | 40 | 6.4 | 16.1 | 0.23 | 2.62 | 2.62 | 94 | 1006.5 |
| 20260506023825 | 8 | 71 | 0.0 | 16.1 | 0.20 | 2.59 | 2.59 | 94 | 1006.5 |
| 20260506022825 | 8 | 56 | 8.0 | 11.3 | 0.18 | 2.57 | 2.57 | 94 | 1006.7 |
| 20260506022324 | 8 | 26 | 1.6 | 11.3 | 0.18 | 2.54 | 2.54 | 94 | 1006.8 |
| 20260506021825 | 8 | 24 | 0.0 | 8.0 | 0.18 | 2.51 | 2.51 | 93 | 1006.9 |
| 20260506021323 | 8 | 88 | 1.6 | 9.7 | 0.20 | 2.51 | 2.51 | 94 | 1006.9 |
| 20260506020823 | 8 | 67 | 1.6 | 9.7 | 0.23 | 2.51 | 2.51 | 93 | 1006.9 |
| 20260506020323 | 9 | 65 | 4.8 | 6.4 | 0.23 | 2.49 | 2.49 | 93 | 1006.9 |
| 20260506015823 | 9 | 111 | 0.0 | 14.5 | 0.20 | 2.46 | 2.46 | 93 | 1006.8 |
| 20260506015323 | 9 | 355 | 3.2 | 14.5 | 0.20 | 2.44 | 2.44 | 93 | 1006.7 |
| 20260506014823 | 9 | 19 | 3.2 | 8.0 | 0.23 | 2.41 | 2.41 | 93 | 1006.7 |
| 20260506014323 | 9 | 47 | 0.0 | 4.8 | 0.25 | 2.39 | 2.39 | 93 | 1006.6 |
| 20260506013823 | 9 | 57 | 0.0 | 9.7 | 0.28 | 2.39 | 2.39 | 93 | 1006.3 |
| 20260506013322 | 9 | 17 | 0.0 | 9.7 | 0.30 | 2.39 | 2.39 | 93 | 1006.3 |
| 20260506012823 | 9 | 34 | 1.6 | 11.3 | 0.33 | 2.39 | 2.39 | 93 | 1006.2 |
| 20260506011822 | 9 | 26 | 3.2 | 8.0 | 0.36 | 2.34 | 2.34 | 93 | 1006.3 |
| 20260506011322 | 9 | 9 | 3.2 | 11.3 | 0.38 | 2.31 | 2.31 | 93 | 1006.3 |
| 20260506010822 | 10 | 24 | 3.2 | 11.3 | 0.38 | 2.29 | 2.29 | 93 | 1006.6 |
| 20260506010321 | 10 | 5 | 3.2 | 11.3 | 0.41 | 2.26 | 2.26 | 93 | 1006.8 |
| 20260506005821 | 10 | 9 | 6.4 | 8.0 | 0.43 | 2.26 | 2.26 | 93 | 1006.8 |
| 20260506005321 | 10 | 21 | 3.2 | 11.3 | 0.46 | 2.24 | 2.24 | 93 | 1006.8 |
| 20260506004821 | 10 | 313 | 1.6 | 11.3 | 0.46 | 2.18 | 2.18 | 93 | 1006.6 |
| 20260506004321 | 10 | 319 | 0.0 | 8.0 | 0.43 | 2.13 | 2.13 | 93 | 1006.6 |
| 20260506003821 | 10 | 65 | 0.0 | 16.1 | 0.46 | 2.11 | 2.11 | 92 | 1006.5 |
| 20260506002820 | 10 | 36 | 0.0 | 11.3 | 0.48 | 2.06 | 2.06 | 92 | 1006.4 |